sat.trackr.live / text

‹ back to catalog

STARLINK-5946

NORAD 55990 · 2023-042E

PAYLOAD ACTIVE UNKNOWN

§ Identity

Operator
Country
US
Launch date
2023-03-24
Launch site
AFETR
Launch vehicle
Mass (kg)
RCS (m²)

Purposes: comms

External: N2YO · Heavens-Above · Gunter

§ Orbital elements

Epoch: 2026-09-20T19:35:44.762784Z

Period
94.27 min
Inclination
43.0041°
Eccentricity
0.0001223
Mean motion
15.27584502 rev/d
Perigee alt
482.2 km
Apogee alt
483.9 km
Semi-major
6,861.2 km
B*
1.4545e-5
RAAN
37.4613°
Arg perigee
273.4851°
Mean anomaly
86.5861°
Rev number
19,271

§ Raw data

STARLINK-59461 55990U 23042E   26263.81649031  .00000138  00000+0  14545-4 0  99942 55990  43.0041  37.4613 0001223 273.4851  86.5861 15.27584502192717

JSON: /api/v1/satellites/55990 · /tle

For live sub-satellite position, see the globe view (requires WebGL).

§ Visibility from observer

Set your observer location to see the next 7 days of passes ≥ 10°. The values pass through the URL so the page stays shareable.

No JS? Fill the form by hand. The geolocation button needs JavaScript.